Home > Weather > Einsiedeln > Past weeks

Flag for Switzerland Past Weather in Einsiedeln, Schwyz, Switzerland — Yesterday and Last 2 Weeks

Now
72 °F

Partly sunny.


Feels Like: 73 °F
Forecast: 51 / 70 °F
Wind: 2 mph from East

Location: Altdorf

Current Time: Jul 27, 2016 at 3:33:03 PM

Latest Report: Jul 27, 2016 at 2:00 PM


Visibility: 14 mi

Pressure: 30.03 "Hg (27.10 "Hg at 887m altitude)

Humidity: 75%

Dew Point: 63 °F

Location of EinsiedelnLocation

Past Weather in Einsiedeln — Graph

°F

Einsiedeln Temperature Yesterday

Maximum temperature yesterday: 75 °F (at 1:00 PM)
Minimum temperature yesterday: 64 °F (at 12:00 AM)
Average temperature yesterday: 69 °F

High & Low Weather Summary for the Past Weeks

 TemperatureHumidityPressure
High88 °F (Jul 20, 6:00 PM)96% (Jul 23, 5:00 AM)30.38 "Hg (Jul 23, 5:00 AM)
Low45 °F (Jul 16, 5:00 AM)35% (Jul 20, 6:00 PM)29.89 "Hg (Jul 20, 6:00 PM)
Average65 °F78%30.10 "Hg
* Reported Jul 12 1:00 PM — Jul 27 1:00 PM, Einsiedeln, Weather by CustomWeather, © 2016

Note: Actual official high and low records may vary slightly from our data, if they occured in-between our weather recording intervals... More about our weather records

Advertising

Einsiedeln Weather History for the Previous 24 Hours

Scroll right to see more
 ConditionsComfort  
Time TempWeatherWind HumidityBarometerVisibility
1:00 PM
Wed, Jul 27
69 °FMild.6 mph87%30.05 "HgN/A
12:00 PM75 °FMild.12 mph67%30.02 "HgN/A
11:00 AM72 °FScattered clouds.7 mph80%30.05 "Hg12 mi
10:00 AM71 °FMild.3 mph79%30.06 "HgN/A
9:00 AM68 °FMild.2 mph77%30.07 "HgN/A
8:00 AM64 °FScattered clouds.3 mph84%30.09 "Hg12 mi
7:00 AM62 °FCool.2 mph93%30.09 "HgN/A
6:00 AM61 °FCool.No wind93%30.09 "HgN/A
5:00 AM63 °FPassing clouds.1 mph89%30.07 "Hg12 mi
4:00 AM65 °FMild.3 mph83%30.06 "HgN/A
3:00 AM65 °FMild.3 mph85%30.07 "HgN/A
2:00 AM65 °FMild.3 mph90%30.09 "HgN/A
1:00 AM66 °FMild.2 mph90%30.09 "HgN/A
12:00 AM67 °FMild.1 mph90%30.10 "HgN/A
11:00 PM
Tue, Jul 26
68 °FMild.2 mph86%30.08 "HgN/A
10:00 PM68 °FMild.3 mph86%30.08 "HgN/A
9:00 PM71 °FMild.5 mph80%30.06 "HgN/A
8:00 PM70 °FOvercast.2 mph87%30.06 "Hg9 mi
7:00 PM73 °FMild.1 mph74%30.05 "HgN/A
6:00 PM73 °FMild.5 mph75%30.05 "HgN/A
5:00 PM74 °FLight rain. Overcast.3 mph79%30.04 "Hg1 mi
4:00 PM74 °FMild.2 mph76%30.06 "HgN/A
3:00 PM74 °FMild.3 mph74%30.05 "HgN/A
Weather by CustomWeather, © 2016

See weather overviewHow to use our weather pages